TCISK LTBH-LTAJ

Flight info

Callsign TCISK
Flight time 1h 18m
Altitude 39000
Route BIG DCT ERVAG UT179 KFK UL620 MUT DCT ADKAR DCT MILBA UW74 KOZAN
Aircraft C750/M-SBDE3FGHRWXY/S

Departure

Time 2026-05-06 11:36
Airport Çanakkale Airport (LTBH)

Arrival

Time 2026-05-06 12:54
Airport Gaziantep Oğuzeli International Airport (LTAJ)
Time Latitude Longitude Altitude Speed Heading
2026-05-06 11:23 40.13935 26.42536 26 ft 0 kts 312°
2026-05-06 11:32 40.13936 26.42536 26 ft 1 kts 310°
2026-05-06 11:32 40.13929 26.42527 26 ft 1 kts 207°
2026-05-06 11:32 40.13924 26.42529 26 ft 1 kts 156°
2026-05-06 11:32 40.13917 26.42578 26 ft 10 kts 99°
2026-05-06 11:33 40.13921 26.42636 26 ft 9 kts 81°
2026-05-06 11:33 40.13907 26.42698 26 ft 2 kts 131°
2026-05-06 11:33 40.13904 26.42702 27 ft 0 kts 131°
2026-05-06 11:34 40.13874 26.42747 26 ft 12 kts 131°
2026-05-06 11:34 40.13814 26.42757 25 ft 9 kts 228°
2026-05-06 11:35 40.13800 26.42740 25 ft 2 kts 219°
2026-05-06 11:35 40.13793 26.42733 24 ft 1 kts 219°
2026-05-06 11:35 40.13786 26.42725 24 ft 6 kts 219°
2026-05-06 11:35 40.13510 26.42412 23 ft 111 kts 221°
2026-05-06 11:36 40.12831 26.41636 524 ft 130 kts 221°
2026-05-06 11:36 40.12150 26.40828 1265 ft 138 kts 226°
2026-05-06 11:36 40.11381 26.39928 1840 ft 159 kts 225°
2026-05-06 11:36 40.10511 26.38916 2415 ft 180 kts 224°
2026-05-06 11:37 40.09511 26.37779 3169 ft 201 kts 223°
2026-05-06 11:37 40.08392 26.36580 4111 ft 214 kts 221°
2026-05-06 11:37 40.07230 26.35300 5130 ft 222 kts 223°
2026-05-06 11:37 40.05827 26.34397 5981 ft 235 kts 188°
2026-05-06 11:38 40.04222 26.34782 6940 ft 239 kts 151°
2026-05-06 11:38 40.02985 26.36201 8017 ft 237 kts 129°
2026-05-06 11:38 40.01890 26.37878 8901 ft 252 kts 127°
2026-05-06 11:38 40.00720 26.39651 9813 ft 260 kts 128°
2026-05-06 11:39 39.99512 26.41436 10706 ft 265 kts 129°
2026-05-06 11:39 39.98450 26.43380 11431 ft 270 kts 110°
2026-05-06 11:39 39.98200 26.45766 12292 ft 265 kts 82°
2026-05-06 11:39 39.98721 26.48101 12818 ft 279 kts 63°
2026-05-06 11:40 39.99573 26.50498 13137 ft 304 kts 61°
2026-05-06 11:40 40.00505 26.53102 13388 ft 329 kts 62°
2026-05-06 11:40 40.01462 26.55950 13511 ft 356 kts 64°
2026-05-06 11:40 40.02464 26.58976 14034 ft 365 kts 63°
2026-05-06 11:41 40.03495 26.62016 14741 ft 367 kts 63°
2026-05-06 11:41 40.04544 26.65077 15394 ft 371 kts 63°
2026-05-06 11:41 40.05581 26.68135 16042 ft 375 kts 63°
2026-05-06 11:41 40.06636 26.71270 16710 ft 379 kts 63°
2026-05-06 11:42 40.07702 26.74433 17376 ft 383 kts 63°
2026-05-06 11:42 40.08787 26.77642 18076 ft 387 kts 63°
2026-05-06 11:42 40.09879 26.80879 18749 ft 391 kts 63°
2026-05-06 11:42 40.10979 26.84151 19398 ft 395 kts 62°
2026-05-06 11:43 40.12093 26.87467 20056 ft 400 kts 62°
2026-05-06 11:43 40.13220 26.90821 20719 ft 405 kts 62°
2026-05-06 11:43 40.14341 26.94162 21376 ft 409 kts 62°
2026-05-06 11:44 40.16655 27.01076 22700 ft 418 kts 62°
2026-05-06 11:44 40.17826 27.04581 23353 ft 422 kts 62°
2026-05-06 11:44 40.19010 27.08127 23947 ft 426 kts 62°
2026-05-06 11:44 40.20203 27.11707 24480 ft 430 kts 62°
2026-05-06 11:45 40.21387 27.15268 25016 ft 434 kts 62°
2026-05-06 11:45 40.22599 27.18911 25581 ft 437 kts 61°
2026-05-06 11:45 40.23816 27.22576 26137 ft 440 kts 61°
2026-05-06 11:45 40.25004 27.26298 26632 ft 447 kts 65°
2026-05-06 11:46 40.25809 27.30281 27157 ft 457 kts 74°
2026-05-06 11:46 40.26149 27.34462 27692 ft 466 kts 84°
2026-05-06 11:46 40.25987 27.38683 28242 ft 475 kts 93°
2026-05-06 11:46 40.25294 27.42958 28774 ft 484 kts 103°
2026-05-06 11:47 40.24060 27.47096 29305 ft 492 kts 113°
2026-05-06 11:47 40.22432 27.51067 29796 ft 497 kts 116°
2026-05-06 11:47 40.20767 27.55053 30293 ft 501 kts 116°
2026-05-06 11:47 40.19095 27.59081 30730 ft 505 kts 116°
2026-05-06 11:48 40.17414 27.63133 31224 ft 506 kts 116°
2026-05-06 11:48 40.15728 27.67167 31936 ft 503 kts 116°
2026-05-06 11:48 40.14071 27.71121 32605 ft 501 kts 116°
2026-05-06 11:48 40.12404 27.75111 33277 ft 499 kts 116°
2026-05-06 11:49 40.10741 27.79091 33972 ft 497 kts 116°
2026-05-06 11:49 40.09081 27.83049 34574 ft 496 kts 116°
2026-05-06 11:49 40.07424 27.86992 35130 ft 495 kts 116°
2026-05-06 11:49 40.05766 27.90936 35698 ft 495 kts 116°
2026-05-06 11:50 40.04106 27.94882 36283 ft 494 kts 117°
2026-05-06 11:50 40.02452 27.98808 36862 ft 494 kts 117°
2026-05-06 11:50 40.00798 28.02727 37451 ft 493 kts 117°
2026-05-06 11:50 39.99166 28.06587 38053 ft 492 kts 117°
2026-05-06 11:51 39.97513 28.10496 38678 ft 491 kts 117°
2026-05-06 11:51 39.95869 28.14376 39084 ft 489 kts 117°
2026-05-06 11:51 39.94198 28.18317 39088 ft 501 kts 117°
2026-05-06 11:51 39.92491 28.22339 39086 ft 513 kts 118°
2026-05-06 11:52 39.90740 28.26454 39093 ft 524 kts 118°
2026-05-06 11:52 39.88955 28.30644 39100 ft 533 kts 118°
2026-05-06 11:52 39.85330 28.39143 39100 ft 545 kts 118°
2026-05-06 11:53 39.81629 28.47788 39094 ft 546 kts 118°
2026-05-06 11:53 39.77922 28.56428 39088 ft 547 kts 118°
2026-05-06 11:54 39.74196 28.65087 39090 ft 548 kts 118°
2026-05-06 11:54 39.70492 28.73670 39096 ft 548 kts 118°
2026-05-06 11:55 39.66751 28.82313 39083 ft 550 kts 118°
2026-05-06 11:55 39.62993 28.90975 39077 ft 549 kts 118°
2026-05-06 11:56 39.59259 28.99555 39085 ft 547 kts 118°
2026-05-06 11:56 39.55500 29.08170 39079 ft 548 kts 118°
2026-05-06 11:57 39.51739 29.16764 39082 ft 548 kts 118°
2026-05-06 11:57 39.47973 29.25348 39090 ft 548 kts 119°
2026-05-06 11:58 39.44229 29.33857 39082 ft 547 kts 119°
2026-05-06 11:58 39.40450 29.42423 39076 ft 548 kts 119°
2026-05-06 11:59 39.36659 29.50991 39081 ft 548 kts 119°
2026-05-06 11:59 39.32861 29.59553 39082 ft 548 kts 119°
2026-05-06 12:00 39.29086 29.68039 39081 ft 548 kts 119°
2026-05-06 12:00 39.25272 29.76589 39082 ft 548 kts 119°
2026-05-06 12:01 39.21462 29.85107 39090 ft 546 kts 119°
2026-05-06 12:01 39.17650 29.93608 39088 ft 547 kts 119°
2026-05-06 12:02 39.13857 30.02042 39084 ft 548 kts 120°
2026-05-06 12:02 39.10025 30.10540 39090 ft 549 kts 120°
2026-05-06 12:03 39.06032 30.18924 39082 ft 549 kts 126°
2026-05-06 12:03 39.00917 30.26206 39098 ft 549 kts 135°
2026-05-06 12:04 38.95679 30.33372 39109 ft 549 kts 131°
2026-05-06 12:04 38.90591 30.40624 39115 ft 549 kts 134°
2026-05-06 12:05 38.85348 30.47770 39121 ft 549 kts 133°
2026-05-06 12:05 38.80238 30.54995 39122 ft 549 kts 132°
2026-05-06 12:06 38.75182 30.62370 39112 ft 550 kts 131°
2026-05-06 12:06 38.70161 30.69786 39111 ft 550 kts 131°
2026-05-06 12:07 38.65147 30.77118 39116 ft 550 kts 131°
2026-05-06 12:07 38.60105 30.84505 39116 ft 550 kts 131°
2026-05-06 12:08 38.55084 30.91830 39112 ft 550 kts 131°
2026-05-06 12:08 38.50034 30.99186 39112 ft 549 kts 132°
2026-05-06 12:09 38.45839 31.05272 39114 ft 549 kts 132°
2026-05-06 12:09 38.39916 31.13724 39117 ft 549 kts 132°
2026-05-06 12:10 38.35661 31.19841 39121 ft 549 kts 132°
2026-05-06 12:10 38.30622 31.27023 38633 ft 533 kts 132°
2026-05-06 12:11 38.28139 31.30561 37260 ft 535 kts 132°
2026-05-06 12:11 38.25698 31.34047 37111 ft 526 kts 132°
2026-05-06 12:11 38.20747 31.41082 37128 ft 533 kts 132°
2026-05-06 12:12 38.15748 31.48174 37127 ft 544 kts 132°
2026-05-06 12:12 38.10738 31.55428 37112 ft 551 kts 129°
2026-05-06 12:13 38.05861 31.62969 37114 ft 554 kts 132°
2026-05-06 12:13 38.00668 31.70228 37120 ft 555 kts 133°
2026-05-06 12:14 37.95591 31.77539 37119 ft 556 kts 132°
2026-05-06 12:14 37.90416 31.84837 37117 ft 555 kts 133°
2026-05-06 12:15 37.85270 31.92146 37123 ft 555 kts 132°
2026-05-06 12:15 37.80145 31.99383 37112 ft 555 kts 133°
2026-05-06 12:16 37.74974 32.06667 37113 ft 555 kts 133°
2026-05-06 12:16 37.69825 32.13919 37097 ft 554 kts 133°
2026-05-06 12:17 37.64681 32.21128 37105 ft 555 kts 133°
2026-05-06 12:17 37.59497 32.28396 37105 ft 556 kts 133°
2026-05-06 12:18 37.54336 32.35600 37107 ft 556 kts 133°
2026-05-06 12:18 37.49144 32.42843 37102 ft 556 kts 133°
2026-05-06 12:19 37.43977 32.50026 37103 ft 556 kts 133°
2026-05-06 12:19 37.38778 32.57243 37103 ft 556 kts 133°
2026-05-06 12:20 37.33562 32.64465 37087 ft 557 kts 134°
2026-05-06 12:20 37.28374 32.71633 37087 ft 557 kts 134°
2026-05-06 12:21 37.23153 32.78830 37083 ft 557 kts 134°
2026-05-06 12:21 37.17925 32.86021 37083 ft 557 kts 134°
2026-05-06 12:22 37.12729 32.93155 37075 ft 556 kts 134°
2026-05-06 12:22 37.07498 33.00315 37070 ft 556 kts 134°
2026-05-06 12:23 37.02269 33.07463 37063 ft 555 kts 134°
2026-05-06 12:23 36.97065 33.14557 37066 ft 557 kts 134°
2026-05-06 12:24 36.91832 33.21715 37051 ft 558 kts 133°
2026-05-06 12:24 36.87609 33.29877 37052 ft 559 kts 116°
2026-05-06 12:25 36.85318 33.39152 37054 ft 561 kts 99°
2026-05-06 12:25 36.85018 33.48866 37068 ft 560 kts 86°
2026-05-06 12:26 36.85518 33.58509 37083 ft 559 kts 86°
2026-05-06 12:26 36.85252 33.68241 37078 ft 560 kts 94°
2026-05-06 12:27 36.84671 33.77963 37070 ft 561 kts 90°
2026-05-06 12:27 36.84551 33.87732 37067 ft 562 kts 91°
2026-05-06 12:28 36.84065 33.97468 37065 ft 562 kts 92°
2026-05-06 12:28 36.83830 34.07153 37071 ft 561 kts 91°
2026-05-06 12:29 36.83410 34.16901 37085 ft 562 kts 92°
2026-05-06 12:29 36.83094 34.26665 37070 ft 563 kts 91°
2026-05-06 12:30 36.82703 34.36451 37087 ft 563 kts 92°
2026-05-06 12:30 36.82339 34.46159 37085 ft 563 kts 92°
2026-05-06 12:31 36.81956 34.55921 37083 ft 563 kts 92°
2026-05-06 12:31 36.81559 34.65721 37079 ft 564 kts 92°
2026-05-06 12:32 36.81167 34.75449 37078 ft 565 kts 92°
2026-05-06 12:32 36.80753 34.85255 37075 ft 565 kts 92°
2026-05-06 12:33 36.80340 34.95061 37074 ft 565 kts 92°
2026-05-06 12:33 36.79915 35.04804 37065 ft 565 kts 93°
2026-05-06 12:34 36.79487 35.14529 36811 ft 539 kts 93°
2026-05-06 12:34 36.79344 35.19089 36336 ft 513 kts 89°
2026-05-06 12:34 36.79645 35.23456 35923 ft 498 kts 80°
2026-05-06 12:35 36.80243 35.27729 35645 ft 500 kts 77°
2026-05-06 12:35 36.80878 35.31996 35357 ft 502 kts 78°
2026-05-06 12:35 36.81421 35.36316 34699 ft 502 kts 80°
2026-05-06 12:35 36.81902 35.40575 34045 ft 501 kts 80°
2026-05-06 12:36 36.82446 35.44877 33341 ft 500 kts 78°
2026-05-06 12:36 36.83034 35.49161 32680 ft 500 kts 78°
2026-05-06 12:36 36.83589 35.53453 32022 ft 501 kts 79°
2026-05-06 12:36 36.84105 35.57749 31361 ft 500 kts 79°
2026-05-06 12:37 36.84635 35.62048 30699 ft 501 kts 78°
2026-05-06 12:37 36.85182 35.66281 30039 ft 496 kts 78°
2026-05-06 12:37 36.85720 35.70501 29355 ft 489 kts 78°
2026-05-06 12:37 36.86236 35.74684 28714 ft 484 kts 79°
2026-05-06 12:38 36.86745 35.78824 28077 ft 478 kts 79°
2026-05-06 12:38 36.87255 35.82908 27449 ft 473 kts 79°
2026-05-06 12:38 36.87761 35.86953 26833 ft 468 kts 79°
2026-05-06 12:38 36.88248 35.90899 26228 ft 463 kts 79°
2026-05-06 12:39 36.88733 35.94863 25621 ft 459 kts 79°
2026-05-06 12:39 36.89214 35.98787 25022 ft 453 kts 79°
2026-05-06 12:39 36.89691 36.02661 24429 ft 449 kts 79°
2026-05-06 12:39 36.90162 36.06511 23842 ft 444 kts 79°
2026-05-06 12:40 36.90618 36.10262 23231 ft 439 kts 79°
2026-05-06 12:40 36.91075 36.14024 22646 ft 436 kts 79°
2026-05-06 12:40 36.91527 36.17751 22077 ft 432 kts 79°
2026-05-06 12:40 36.91975 36.21456 21510 ft 428 kts 79°
2026-05-06 12:41 36.92417 36.25130 20945 ft 425 kts 80°
2026-05-06 12:41 36.92853 36.28763 20391 ft 421 kts 80°
2026-05-06 12:41 36.93286 36.32368 19840 ft 418 kts 80°
2026-05-06 12:41 36.93708 36.35902 19301 ft 415 kts 80°
2026-05-06 12:42 36.94133 36.39467 18754 ft 412 kts 81°
2026-05-06 12:42 36.94554 36.43004 18188 ft 409 kts 81°
2026-05-06 12:42 36.94968 36.46495 17629 ft 404 kts 81°
2026-05-06 12:42 36.95172 36.49975 17097 ft 400 kts 89°
2026-05-06 12:43 36.95176 36.53432 16583 ft 396 kts 90°
2026-05-06 12:43 36.95184 36.56864 16056 ft 392 kts 89°
2026-05-06 12:43 36.95212 36.60261 15543 ft 388 kts 89°
2026-05-06 12:43 36.95240 36.63629 15034 ft 385 kts 90°
2026-05-06 12:44 36.95254 36.66967 14518 ft 381 kts 90°
2026-05-06 12:44 36.95266 36.70234 14025 ft 378 kts 90°
2026-05-06 12:44 36.95281 36.73513 13500 ft 374 kts 90°
2026-05-06 12:44 36.95297 36.76779 13002 ft 376 kts 90°
2026-05-06 12:45 36.95312 36.80026 12498 ft 372 kts 90°
2026-05-06 12:45 36.95323 36.83224 12024 ft 369 kts 90°
2026-05-06 12:45 36.95346 36.89514 11063 ft 346 kts 90°
2026-05-06 12:46 36.95358 36.92406 10630 ft 322 kts 90°
2026-05-06 12:46 36.95367 36.95099 10204 ft 308 kts 90°
2026-05-06 12:46 36.95375 36.97749 9778 ft 300 kts 90°
2026-05-06 12:46 36.95383 37.00340 9375 ft 294 kts 90°
2026-05-06 12:47 36.95390 37.02902 8986 ft 294 kts 90°
2026-05-06 12:47 36.95397 37.05472 8593 ft 294 kts 90°
2026-05-06 12:47 36.95403 37.08009 8213 ft 288 kts 90°
2026-05-06 12:47 36.95408 37.10483 7836 ft 290 kts 90°
2026-05-06 12:48 36.95413 37.12993 7457 ft 289 kts 91°
2026-05-06 12:48 36.95605 37.15462 7016 ft 281 kts 73°
2026-05-06 12:48 36.96502 37.17552 6690 ft 266 kts 57°
2026-05-06 12:48 36.97495 37.19449 6371 ft 255 kts 56°
2026-05-06 12:49 36.98448 37.21284 6034 ft 248 kts 57°
2026-05-06 12:49 36.99338 37.23092 5698 ft 239 kts 62°
2026-05-06 12:49 36.99628 37.25050 5380 ft 229 kts 97°
2026-05-06 12:49 36.99289 37.26887 5506 ft 212 kts 108°
2026-05-06 12:50 36.98897 37.28711 5245 ft 218 kts 107°
2026-05-06 12:50 36.98534 37.30439 4989 ft 190 kts 106°
2026-05-06 12:50 36.98219 37.31929 4807 ft 165 kts 108°
2026-05-06 12:50 36.97931 37.33276 4670 ft 157 kts 108°
2026-05-06 12:51 36.97654 37.34566 4577 ft 152 kts 108°
2026-05-06 12:51 36.97374 37.35870 4317 ft 157 kts 109°
2026-05-06 12:51 36.97096 37.37171 4085 ft 157 kts 110°
2026-05-06 12:51 36.96821 37.38459 3847 ft 147 kts 107°
2026-05-06 12:52 36.96565 37.39661 3581 ft 138 kts 106°
2026-05-06 12:52 36.96323 37.40791 3374 ft 133 kts 105°
2026-05-06 12:52 36.96097 37.41898 3143 ft 131 kts 104°
2026-05-06 12:52 36.95860 37.42983 2945 ft 128 kts 104°
2026-05-06 12:53 36.95634 37.44017 2755 ft 119 kts 104°
2026-05-06 12:53 36.95423 37.44997 2562 ft 115 kts 105°
2026-05-06 12:53 36.95223 37.45948 2408 ft 112 kts 105°
2026-05-06 12:53 36.95023 37.46873 2292 ft 106 kts 105°
2026-05-06 12:54 36.94849 37.47686 2276 ft 77 kts 105°
2026-05-06 12:54 36.94729 37.48224 2278 ft 58 kts 105°
2026-05-06 12:54 36.94633 37.48645 2277 ft 37 kts 109°
2026-05-06 12:54 36.94500 37.48892 2279 ft 24 kts 135°
2026-05-06 12:55 36.94411 37.48931 2283 ft 13 kts 236°
2026-05-06 12:55 36.94422 37.48827 2284 ft 14 kts 285°
2026-05-06 12:55 36.94453 37.48686 2284 ft 20 kts 284°
2026-05-06 12:55 36.94479 37.48565 2282 ft 24 kts 285°
2026-05-06 12:56 36.94528 37.48338 2284 ft 30 kts 285°
2026-05-06 12:56 36.94610 37.47960 2284 ft 32 kts 285°
2026-05-06 12:56 36.94629 37.47829 2284 ft 7 kts 272°
2026-05-06 12:56 36.94612 37.47793 2281 ft 7 kts 200°
2026-05-06 12:57 36.94590 37.47783 2285 ft 4 kts 221°
2026-05-06 12:57 36.94599 37.47715 2285 ft 12 kts 284°
2026-05-06 12:57 36.94600 37.47621 2281 ft 6 kts 194°
2026-05-06 12:57 36.94570 37.47612 2284 ft 0 kts 195°